Flag for Cameroon Weather past 2 weeks in Garoua, Cameroon

Now
77 °F

Passing clouds.


Feels Like: 78 °F
Forecast: 75 / 89 °F
Wind: 2 mph from Northeast

Location: Ndjamena

Current Time: Sep 2, 2015 at 12:10:31 AM

Latest Report: Sep 1, 2015 at 10:00 PM


Visibility: N/A

Pressure: 29.92 "Hg

Humidity: 100%

Dew point: 77 °F

Location of GarouaLocation

Historic Weather in Garoua — Graph

°F

Garoua temperature yesterday

Maximum temperature yesterday: 84 °F (at 12:00 PM)
Minimum temperature yesterday: 72 °F (at 3:00 AM)
Average temperature yesterday: 78 °F

Past Weeks' High & Low Weather Summary

 TemperatureHumidityPressure
High97 °F (Aug 22, 1:00 PM)100% (Aug 18, 2:00 AM)29.98 "Hg (Aug 18, 2:00 AM)
Low72 °F (Aug 19, 5:00 AM)36% (Aug 20, 4:00 PM)29.71 "Hg (Aug 22, 5:00 PM)
Average81 °F81%29.85 "Hg
* Reported Aug 17 10:00 PM — Sep 1 10:00 PM, Garoua, Weather by CustomWeather, © 2015

Note: Actual official high and low records may vary slightly from our data, if they occured in-between our weather recording intervals... More about our weather records

Advertising

Garoua weather history for previous 24 hours

 ConditionsComfort  
Time TempWeatherWind HumidityBarometerVisibility
10:00 PM
Tue, Sep 1
77 °FPassing clouds.2 mph100%29.92 "HgN/A
8:00 PM79 °FPassing clouds.2 mph89%29.86 "HgN/A
7:00 PM79 °FPassing clouds.No wind89%29.83 "HgN/A
5:00 PM82 °FPartly sunny.6 mph74%29.83 "HgN/A
4:00 PM82 °FThunderstorms. Partly sunny.2 mph74%29.83 "Hg5 mi
3:00 PM84 °FPartly sunny.5 mph66%29.86 "HgN/A
1:00 PM84 °FPartly sunny.7 mph66%29.92 "HgN/A
12:00 PM84 °FScattered clouds.8 mph66%29.92 "HgN/A
11:00 AM82 °FScattered clouds.9 mph70%29.95 "HgN/A
9:00 AM79 °FPartly sunny.8 mph84%29.92 "HgN/A
8:00 AM75 °FScattered clouds.8 mph94%29.92 "Hg5 mi
7:00 AM73 °FScattered clouds.6 mph100%29.89 "Hg5 mi
6:00 AM72 °FThunderstorms. Scattered clouds.5 mph100%29.89 "Hg4 mi
3:00 AM72 °FThunderstorms. Passing clouds.2 mph100%29.92 "Hg5 mi
2:00 AM73 °FThunderstorms. Passing clouds.9 mph100%29.92 "Hg5 mi
12:00 AM73 °FThunderstorms. Partly cloudy.8 mph100%29.92 "Hg4 mi
Weather by CustomWeather, © 2015

See weather overviewHow to use our weather pages